Flag for Portugal Weather past 2 weeks in Ponta Delgada, Azores, Portugal

63 °F

Passing clouds.

Feels Like: 63 °F
Forecast: 62 / 67 °F
Wind: 14 mph from Southeast

Location: Ponta Delgada / Nordela Acores

Current Time: Nov 30, 2015 at 2:39:34 AM

Latest Report: Nov 30, 2015 at 2:00 AM

Visibility: N/A

Pressure: 30.39 "Hg

Humidity: 77%

Dew point: 55 °F

Location of Ponta DelgadaLocation

Historic Weather in Ponta Delgada — Graph


Ponta Delgada temperature yesterday

Maximum temperature yesterday: 64 °F (at 1:30 PM)
Minimum temperature yesterday: 55 °F (at 4:00 AM)
Average temperature yesterday: 60 °F

Past Weeks' High & Low Weather Summary

High68 °F (Nov 15, 11:00 AM)100% (Nov 15, 1:00 AM)30.72 "Hg (Nov 15, 1:00 AM)
Low52 °F (Nov 23, 5:30 AM)59% (Nov 23, 11:30 AM)30.15 "Hg (Nov 15, 1:30 PM)
Average63 °F84%30.42 "Hg
* Reported Nov 15 1:00 AM — Nov 30 1:00 AM, Ponta Delgada, Weather by CustomWeather, © 2015

Note: Actual official high and low records may vary slightly from our data, if they occured in-between our weather recording intervals... More about our weather records


Ponta Delgada weather history for previous 24 hours

Time TempWeatherWind HumidityBarometerVisibility
1:00 AM
Mon, Nov 30
63 °FPassing clouds.15 mph77%30.39 "HgN/A
12:30 AM63 °FPassing clouds.13 mph77%30.39 "HgN/A
11:30 PM
Sun, Nov 29
61 °FPassing clouds.7 mph83%30.39 "HgN/A
11:00 PM61 °FPassing clouds.7 mph83%30.39 "HgN/A
10:30 PM61 °FPassing clouds.9 mph83%30.42 "HgN/A
10:00 PM61 °FPassing clouds.8 mph77%30.42 "HgN/A
9:30 PM59 °FPassing clouds.6 mph82%30.42 "HgN/A
9:00 PM59 °FPassing clouds.6 mph82%30.42 "HgN/A
8:30 PM61 °FPassing clouds.8 mph77%30.42 "HgN/A
8:00 PM59 °FPassing clouds.8 mph82%30.42 "HgN/A
7:30 PM59 °FPassing clouds.6 mph82%30.42 "HgN/A
7:00 PM61 °FPassing clouds.6 mph77%30.39 "HgN/A
6:30 PM61 °FPassing clouds.9 mph77%30.39 "HgN/A
6:00 PM61 °FPassing clouds.9 mph77%30.39 "HgN/A
5:30 PM63 °FPassing clouds.10 mph68%30.39 "HgN/A
5:00 PM63 °FPassing clouds.10 mph73%30.39 "HgN/A
4:30 PM63 °FPassing clouds.10 mph73%30.39 "HgN/A
4:00 PM63 °FScattered clouds.10 mph73%30.39 "HgN/A
3:30 PM63 °FScattered clouds.10 mph68%30.39 "HgN/A
3:00 PM64 °FScattered clouds.10 mph68%30.39 "HgN/A
2:30 PM64 °FPassing clouds.10 mph64%30.39 "HgN/A
2:00 PM64 °FScattered clouds.9 mph64%30.42 "HgN/A
1:30 PM64 °FScattered clouds.7 mph64%30.42 "HgN/A
1:00 PM63 °FPartly sunny.6 mph68%30.42 "HgN/A
12:30 PM63 °FPartly sunny.7 mph68%30.45 "HgN/A
12:00 PM63 °FScattered clouds.8 mph68%30.45 "HgN/A
11:30 AM61 °FPartly sunny.8 mph68%30.48 "HgN/A
11:00 AM63 °FPartly sunny.7 mph68%30.48 "HgN/A
10:30 AM61 °FPartly sunny.8 mph68%30.48 "HgN/A
10:00 AM61 °FPartly sunny.7 mph68%30.48 "HgN/A
9:30 AM61 °FPartly sunny.6 mph68%30.48 "HgN/A
8:30 AM55 °FPassing clouds.6 mph77%30.45 "HgN/A
8:00 AM55 °FPassing clouds.7 mph72%30.45 "HgN/A
7:30 AM55 °FPassing clouds.7 mph72%30.45 "HgN/A
7:00 AM55 °FPassing clouds.7 mph72%30.45 "HgN/A
5:30 AM57 °FPassing clouds.8 mph67%30.45 "HgN/A
5:00 AM55 °FPassing clouds.9 mph72%30.45 "HgN/A
4:00 AM55 °FPassing clouds.7 mph72%30.45 "HgN/A
3:30 AM57 °FPassing clouds.6 mph67%30.45 "HgN/A
3:00 AM57 °FPassing clouds.7 mph67%30.45 "HgN/A
2:30 AM57 °FPassing clouds.7 mph67%30.45 "HgN/A
2:00 AM57 °FPassing clouds.9 mph72%30.45 "HgN/A
Weather by CustomWeather, © 2015

See weather overviewHow to use our weather pages